Погода в Синске

Россия / Республика Саха (Якутия)     61°07′51″N   126°49′57″E
темп.,
°C
ветер,
м/с
пор.,
м/с
влажн.,
%
обл.,
%
осадки,
мм/ч
давл.,
гПа
погр.,
м
3 марта, ср
ср300:00−33всв119869 0.0 102419
03:00−35в1110073 0.0 102319
06:00−36всв1110067 0.0 102319
09:00−33всв019769 0.0 102230
12:00−27св128474 0.0 1020329
15:00−24с128084 0.0 1019562
18:00−29ссз229499 0.0 102019
21:00−33зсз129876 0.0 102119
4 марта, чт
чт400:00−35з229867 0.0 102221
03:00−34з399574 0.0 1022289
06:00−33з41093100 0.1 1022499
09:00−31зсз4992100 0.2 1022638
12:00−30зсз5989100 0.2 1022858
15:00−28зсз5987100 0.3 10231038
18:00−29зсз4992100 0.1 10251090
21:00−29зсз41093100 0.3 10271080
5 марта, пт
пт500:00−30зсз3994100 0.1 1028977
03:00−31зсз31092100 0.1 1029845
06:00−31зсз31093100 0.0 1030670
09:00−31зсз51089100 0.1 1031655
12:00−29зсз4887100 0.0 1031663
15:00−26зсз5985100 0.0 1030725
18:00−28з3990100 0.0 1031295
21:00−30з269353 0.0 1032134
6 марта, сб
сб600:00−32з24950 0.0 103183
03:00−33з36970 0.0 1031116
06:00−34з23980 0.0 103167
09:00−32з24950 0.0 1030155
12:00−24з248427 0.0 1028369
15:00−20з137727 0.0 1026559
18:00−25ююз01905 0.0 102520
21:00−28вюв11922 0.0 102619
7 марта, вс
вс700:00−30вюв11960 0.0 102519
03:00−31вюв11980 0.0 102519
06:00−32вюв11980 0.0 102419
09:00−28вюв11930 0.0 102458
12:00−21вюв12790 0.0 1021285
15:00−17в23790 0.0 1019351
18:00−21всв23940 0.0 101929
21:00−25в229813 0.0 101920